User: anonymous   Login
Location: Prairie State College
(41.5244°N, 87.6382°W)
Time: 23:52:24
(UTC-05:00)
Language:

ARGOS Delta rocket - Orbit

View from above orbital plane
View from above orbital plane
View from above satellite
View from above satellite

Ground track
Ground track

The orbit data is extracted from the following two-line orbital elements,

1 25637U 99008D   14302.80359007  .00000506  00000-0  13183-3 0  6257
2 25637 096.4863 053.0825 0145371 099.0353 052.3966 14.46027541826645
Epoch (UTC): 29 October 2014 19:17:10
Eccentricity: 0.0145371
inclination: 96.4863°
perigee height: 635 km
apogee height: 842 km
right ascension of ascending node: 53.0825°
argument of perigee: 99.0353°
revolutions per day: 14.46027541
mean anomaly at epoch: 52.3966°
orbit number at epoch: 82664

The dashed part of the orbit path shows where the satellite is in the earth's shadow,  

DLR